Flag for Canada Weather past 2 weeks in Norfolk, Ontario, Canada

Now
76 °F

Mild.


Feels Like: 78 °F
Forecast: 65 / 83 °F
Wind: 2 mph from Southwest

Location: Delhi CS

Current Time: Jul 29, 2015 at 11:08:01 PM

Latest Report: Jul 29, 2015 at 10:00 PM


Visibility: N/A

Pressure: 29.84 "Hg

Humidity: 70%

Dew point: 65 °F

Location of NorfolkLocation

Historic Weather in Norfolk — Graph

°F

Norfolk temperature yesterday

Maximum temperature yesterday: 86 °F (at 11:00 AM)
Minimum temperature yesterday: 58 °F (at 4:00 AM)
Average temperature yesterday: 68 °F

Past Weeks' High & Low Weather Summary

 TemperatureHumidityPressure
High90 °F (Jul 29, 4:00 PM)100% (Jul 23, 6:00 AM)30.11 "Hg (Jul 23, 6:00 AM)
Low49 °F (Jul 16, 6:00 AM)31% (Jul 23, 2:00 PM)29.55 "Hg (Jul 14, 9:00 PM)
Average70 °F71%29.89 "Hg
* Reported Jul 14 9:00 PM — Jul 29 9:00 PM, Norfolk, Weather by CustomWeather, © 2015

Note: Actual official high and low records may vary slightly from our data, if they occured in-between our weather recording intervals... More about our weather records

Advertising

Norfolk weather history for previous 24 hours

 ConditionsComfort  
Time TempWeatherWind HumidityBarometerVisibility
9:00 PM
Wed, Jul 29
78 °FWarm.2 mph64%29.83 "HgN/A
8:00 PM81 °FWarm.3 mph58%29.85 "HgN/A
7:00 PM82 °FWarm.5 mph53%29.85 "HgN/A
6:00 PM85 °FWarm.5 mph44%29.87 "HgN/A
5:00 PM89 °FHot.8 mph33%29.87 "HgN/A
4:00 PM90 °FHot.7 mph32%29.87 "HgN/A
3:00 PM89 °FHot.8 mph36%29.90 "HgN/A
2:00 PM88 °FHot.7 mph41%29.91 "HgN/A
1:00 PM88 °FHot.7 mph41%29.93 "HgN/A
12:00 PM87 °FWarm.6 mph49%29.95 "HgN/A
11:00 AM85 °FWarm.5 mph51%29.96 "HgN/A
10:00 AM81 °FWarm.3 mph54%29.95 "HgN/A
9:00 AM75 °FMild.1 mph68%29.96 "HgN/A
8:00 AM67 °FMild.1 mph90%29.96 "HgN/A
7:00 AM60 °FCool.No wind100%29.95 "HgN/A
6:00 AM61 °FCool.1 mph97%29.95 "HgN/A
5:00 AM61 °FCool.No wind96%29.95 "HgN/A
4:00 AM62 °FCool.No wind96%29.96 "HgN/A
3:00 AM62 °FMild.No wind94%29.98 "HgN/A
2:00 AM65 °FMild.No wind91%29.98 "HgN/A
Weather by CustomWeather, © 2015

See weather overviewHow to use our weather pages